Home   Weather   Breda   Past weeks

Flag for Netherlands Past Weather in Breda, Netherlands — Yesterday and Last 2 Weeks

Now
68 °F

More clouds than sun.


Feels Like: 68 °F
Forecast: 53 / 73 °F
Wind: 12 mph from West

Location: Gilze-Rijen

Current Time: Jul 20, 2017 at 8:47:15 pm

Latest Report: Jul 20, 2017 at 7:55 pm


Visibility: N/A

Pressure: 29.83 "Hg

Humidity: 60%

Dew Point: 54 °F

Location of BredaLocation

Past Weather in Breda — Graph

°F

Breda Temperature Yesterday

Maximum temperature yesterday: 86 °F (at 5:25 pm)
Minimum temperature yesterday: 66 °F (at 4:25 am)
Average temperature yesterday: 75 °F

High & Low Weather Summary for the Past Weeks

 TemperatureHumidityPressure
High86 °F (Jul 19, 5:25 pm)100% (Jul 6, 3:29 am)30.21 "Hg (Jul 6, 3:29 am)
Low45 °F (Jul 13, 4:37 am)34% (Jul 9, 5:25 pm)29.65 "Hg (Jul 12, 10:05 am)
Average66 °F75%29.99 "Hg
* Reported Jul 5 7:25 pm — Jul 20 7:25 pm, Breda. Weather by CustomWeather, © 2017

Note: Actual official high and low records may vary slightly from our data, if they occured in-between our weather recording intervals... More about our weather records

Advertising

Breda Weather History for the Previous 24 Hours

Scroll right to see more
 ConditionsComfort  
Time TempWeatherWind HumidityBarometerVisibility
7:25 pm
Thu, Jul 20
70 °FBroken clouds.12 mph64%29.83 "HgN/A
7:00 pm72 °FBroken clouds.13 mph61%29.80 "HgN/A
6:55 pm70 °FBroken clouds.10 mph73%29.80 "HgN/A
6:35 pm70 °FBroken clouds.8 mph73%29.80 "HgN/A
6:25 pm68 °FMore clouds than sun.9 mph78%29.80 "HgN/A
5:55 pm68 °FLight rain. Mostly cloudy.10 mph78%29.80 "HgN/A
5:25 pm72 °FPartly sunny.15 mph65%29.77 "HgN/A
4:55 pm75 °FMostly cloudy.12 mph57%29.77 "HgN/A
4:29 pm75 °FMostly cloudy.13 mph57%29.77 "HgN/A
3:55 pm75 °FMostly cloudy.13 mph54%29.74 "HgN/A
3:25 pm77 °FPartly sunny.7 mph57%29.74 "HgN/A
1:55 pm75 °FMild.9 mph69%29.74 "HgN/A
1:31 pm73 °FMostly cloudy.9 mph74%29.74 "HgN/A
1:25 pm70 °FMostly cloudy.9 mph83%29.74 "HgN/A
12:55 pm66 °FLots of rain. Broken clouds.16 mph88%29.74 "Hg4 mi
12:34 pm75 °FBroken clouds.12 mph65%29.74 "HgN/A
12:01 pm73 °FBroken clouds.7 mph74%29.74 "HgN/A
11:55 am73 °FOvercast.8 mph74%29.74 "HgN/A
11:25 am72 °FFog.8 mph83%29.77 "Hg5 mi
11:06 am70 °FFog.7 mph83%29.77 "Hg5 mi
10:25 am70 °FFog.8 mph88%29.74 "Hg4 mi
10:16 am70 °FFog.7 mph88%29.74 "Hg4 mi
9:55 am68 °FFog.7 mph94%29.74 "Hg4 mi
9:25 am68 °FFog.9 mph88%29.74 "Hg6 mi
8:55 am68 °FFog.8 mph88%29.74 "Hg5 mi
8:25 am66 °FFog.5 mph94%29.74 "Hg4 mi
7:55 am64 °FFog.5 mph94%29.74 "Hg4 mi
7:25 am64 °FThunderstorms. Mostly cloudy.6 mph94%29.74 "Hg4 mi
6:55 am64 °FFog.5 mph94%29.74 "Hg5 mi
6:25 am64 °FFog.5 mph94%29.74 "Hg6 mi
5:55 am64 °FFog.2 mph94%29.74 "Hg6 mi
5:25 am64 °FFog.5 mph94%29.74 "Hg5 mi
4:55 am64 °FFog.2 mph94%29.74 "Hg4 mi
4:25 am64 °FFog.3 mph100%29.74 "Hg4 mi
3:55 am66 °FMostly cloudy.2 mph88%29.77 "HgN/A
3:25 am66 °FThunderstorms. Overcast.3 mph94%29.77 "Hg3 mi
2:55 am68 °FThunderstorms. Partly cloudy.5 mph88%29.77 "Hg2 mi
2:25 am68 °FMostly cloudy.1 mph83%29.77 "HgN/A
1:55 am68 °FOvercast.1 mph83%29.77 "HgN/A
1:25 am68 °FOvercast.2 mph83%29.77 "HgN/A
12:55 am68 °FMostly cloudy.3 mph83%29.77 "HgN/A
12:25 am68 °FOvercast.3 mph83%29.77 "HgN/A
11:55 pm
Wed, Jul 19
70 °FOvercast.3 mph78%29.77 "HgN/A
11:25 pm70 °FOvercast.6 mph78%29.77 "HgN/A
10:55 pm72 °FOvercast.7 mph73%29.77 "HgN/A
10:25 pm72 °FOvercast.8 mph73%29.77 "HgN/A
9:55 pm73 °FOvercast.6 mph69%29.77 "HgN/A
9:25 pm73 °FOvercast.7 mph74%29.77 "HgN/A
8:55 pm73 °FOvercast.9 mph78%29.74 "HgN/A
8:25 pm77 °FOvercast.13 mph69%29.74 "HgN/A
Weather by CustomWeather, © 2017

See weather overviewHow to use our weather pages